Terug naar catalogus

ION SCV-020

ActiefCommunicatieSSO
NORAD 64545·PAYLOAD·🇮🇹 Italy

Gelanceerd Jun 23, 2025 vanaf Vandenberg Space Force Base

Loading…

Volgende Passages (komende 24 uur)

TLE

VersSource: Space-Track

Epoch: Sep 14, 2026, 01:40 UTC

1 64545U 25135T   26257.06993983  .00002673  00000-0  12848-3 0  9993
2 64545  97.4689  10.9833 0007330 190.8092 169.2987 15.19673877 68342

Volg ION SCV-020 in realtime met AllMySat

Download on the App Store